Regional Weather Roundup
Issued by NWS Little Rock, AR

Home | Current Version | Previous Version | Graphics & Text | Print | Product List | Glossary On
Versions: 1 2 3 4 5 6 7 8 9 10 11 12 13 14 15 16 17 18 19 20 21 22 23 24 25 26 27 28 29 30 31 32 33 34 35 36 37 38 39 40 41 42 43 44 45 46 47 48 49 50
000
ASUS44 KLZK 200705
RWRLZK

WEATHER ROUNDUP FOR ARKANSAS
NATIONAL WEATHER SERVICE LITTLE ROCK AR
100 AM CST SAT DEC 20 2014

NOTE: "FAIR" INDICATES FEW OR NO CLOUDS BELOW 12,000 FEET WITH NO
SIGNIFICANT WEATHER AND/OR OBSTRUCTIONS TO VISIBILITY.

ARZ001-003-010-029-200800-
NORTHWEST ARKANSAS

CITY           SKY/WX    TMP DP  RH WIND       PRES   REMARKS
FAYETTEVILLE   CLOUDY    40  40 100 SW3       30.20S
FORT SMITH     CLOUDY    43  39  86 E3        30.23S FOG
HARRISON       FOG       36  36 100 SE7       30.19F VSB 3/4
BENTONVILLE    CLOUDY    39  37  93 W5        30.20S
ROGERS         LGT RAIN  40  40 100 CALM      30.20S FOG
SILOAM SPGS    CLOUDY    39  34  81 NW3       30.21S
HIGHFILL       CLOUDY    40  40 100 W5        30.19S FOG
$$

ARZ004-005-016-200800-
NORTH CENTRAL ARKANSAS

CITY           SKY/WX    TMP DP  RH WIND       PRES   REMARKS
BATESVILLE     CLOUDY    37  32  81 CALM      30.25S
FLIPPIN        CLOUDY    37  32  81 CALM      30.22
MTN HOME       CLOUDY    36  35  96 SE5       30.21F FOG
$$

ARZ040-041-200800-
WEST CENTRAL ARKANSAS

CITY           SKY/WX    TMP DP  RH WIND       PRES   REMARKS
MENA           CLOUDY    43  43 100 CALM      30.20F
MOUNT IDA      CLOUDY    42  40  92 CALM      30.18F FOG
$$

ARZ009-017-025-026-028-200800-
NORTHEAST ARKANSAS

CITY           SKY/WX    TMP DP  RH WIND       PRES   REMARKS
CORNING        CLOUDY    37  34  87 NE7       30.26F
JONESBORO      CLOUDY    38  34  85 NE6       30.24F
NEWPORT        CLOUDY    38  36  92 N5        30.26S
WALNUT RIDGE   CLOUDY    37  32  81 N6        30.25S
BLYTHEVILLE    CLOUDY    39  36  89 N5        30.25F
$$

ARZ022-023-033-042-044-200800-
CENTRAL ARKANSAS

CITY           SKY/WX    TMP DP  RH WIND       PRES   REMARKS
LITTLE ROCK    CLOUDY    41  35  79 NE5       30.24F
N LITTLE ROCK    N/A     38  37  97 NE5       30.24F
JACKSONVILLE   CLOUDY    39  36  90 NE3       30.23F
SEARCY         CLOUDY    39  35  86 N5        30.26S
HOT SPRINGS    CLOUDY    41  37  86 E3        30.23S
RUSSELLVILLE   CLOUDY    41  36  82 CALM      30.23F
CLINTON        MOCLDY    39  37  93 CALM      30.25F FOG
$$

ARZ036-200800-
EAST ARKANSAS

CITY           SKY/WX    TMP DP  RH WIND       PRES   REMARKS
WEST MEMPHIS   CLEAR     36  34  92 N3        30.22F
$$

ARZ050-053-066-070-073-200800-
SOUTHWEST ARKANSAS

CITY           SKY/WX    TMP DP  RH WIND       PRES   REMARKS
ARKADELPHIA    PTSUNNY   42  41  97 NE3       30.24S
CAMDEN         CLOUDY    43  37  81 MISG      30.23S
TEXARKANA      CLOUDY    44  42  93 NE3       30.21F FOG
EL DORADO      CLOUDY    43  41  93 N5        30.21S
DE QUEEN       CLOUDY    44  42  93 E3        30.21S FOG
$$

ARZ056-057-069-200800-
SOUTHEAST ARKANSAS

CITY           SKY/WX    TMP DP  RH WIND       PRES   REMARKS
PINE BLUFF     CLOUDY    41  37  86 N6        30.23S
STUTTGART      CLOUDY    39  36  87 N6        30.24S
MONTICELLO     CLOUDY    43  39  86 NE5       30.20F

$$




USA.gov is the U.S. government's official web portal to all federal, state and local government web resources and services.